GW5997 Weather Reports


time (UTC)temp
C
wind
direction
speed
KPH
gust
KPH
rain 1hr
cm
rain 24hr
cm
rain mn
cm
humidity
%
barometer
mb
20260507221401 26 163 3.2 6.4 0.00 0.00 0.00 84 1015.9
20260507220856 26 169 3.2 4.8 0.00 0.00 0.00 83 1015.7
20260507220355 26 39 1.6 1.6 0.00 0.00 0.00 81 1015.8
20260507215851 26 71 0.0 0.0 0.00 0.00 0.00 81 1015.9
20260507215343 26 82 1.6 1.6 0.00 0.00 0.00 80 1015.7
20260507214840 26 82 0.0 0.0 0.00 0.00 0.00 81 1015.6
20260507214338 26 105 1.6 1.6 0.00 0.00 0.00 81 1015.5
20260507213837 26 86 0.0 0.0 0.00 0.00 0.00 80 1015.2
20260507213335 26 44 1.6 1.6 0.00 0.00 0.00 80 1015.4
20260507212831 27 218 3.2 3.2 0.00 0.00 0.00 79 1015.3
20260507212327 27 149 1.6 1.6 0.00 0.00 0.00 79 1015.3
20260507211824 27 346 3.2 3.2 0.00 0.00 0.00 77 1015.1
20260507211321 27 79 0.0 0.0 0.00 0.00 0.00 77 1015.5
20260507210818 27 146 1.6 1.6 0.00 0.00 0.00 78 1015.4
20260507210315 27 34 1.6 1.6 0.00 0.00 0.00 79 1015.2
20260507205811 27 3 3.2 4.8 0.00 0.00 0.00 80 1015.2
20260507205308 27 189 1.6 3.2 0.00 0.00 0.00 80 1015.2
20260507204804 27 205 6.4 6.4 0.00 0.00 0.00 80 1015.3
20260507204302 27 95 0.0 0.0 0.00 0.00 0.00 79 1015.3
20260507203759 27 20 3.2 3.2 0.00 0.00 0.00 77 1014.9
20260507203257 28 88 1.6 3.2 0.00 0.00 0.00 76 1015.1
20260507202753 28 27 0.0 1.6 0.00 0.00 0.00 74 1015.1
20260507202249 30 332 3.2 4.8 0.00 0.00 0.00 70 1015.1
20260507201744 28 54 0.0 1.6 0.00 0.00 0.00 73 1015.1
20260507201241 28 88 0.0 1.6 0.00 0.00 0.00 73 1015.0
20260507200737 28 114 0.0 0.0 0.00 0.00 0.00 74 1015.1
20260507200233 28 230 4.8 4.8 0.00 0.00 0.00 74 1015.3
20260507195730 28 84 0.0 1.6 0.00 0.00 0.00 74 1015.3
20260507195227 28 7 4.8 6.4 0.00 0.00 0.00 74 1015.1
20260507194724 29 111 1.6 3.2 0.00 0.00 0.00 73 1015.3
20260507194220 30 224 3.2 3.2 0.00 0.00 0.00 70 1015.3
20260507193717 29 177 1.6 3.2 0.00 0.00 0.00 73 1015.2
20260507193214 28 96 0.0 1.6 0.00 0.00 0.00 76 1015.3
20260507192710 27 104 1.6 3.2 0.00 0.00 0.00 78 1015.3
20260507192207 27 224 3.2 4.8 0.00 0.00 0.00 77 1015.4
20260507191702 28 166 1.6 3.2 0.00 0.00 0.00 77 1015.6
20260507191200 28 152 1.6 1.6 0.00 0.00 0.00 76 1015.4
20260507190657 28 14 1.6 3.2 0.00 0.00 0.00 74 1015.5
20260507190155 28 328 4.8 4.8 0.00 0.00 0.00 73 1015.6
20260507185653 29 322 6.4 9.7 0.00 0.00 0.00 72 1015.5
20260507185150 30 42 3.2 6.4 0.00 0.00 0.00 70 1015.5
20260507184647 29 22 1.6 1.6 0.00 0.00 0.00 73 1015.6
20260507184145 30 333 3.2 3.2 0.00 0.00 0.00 71 1015.7
20260507183641 30 20 3.2 4.8 0.00 0.00 0.00 71 1015.6
20260507183139 30 190 0.0 1.6 0.00 0.00 0.00 71 1015.5
20260507182635 30 115 0.0 0.0 0.00 0.00 0.00 72 1015.8
20260507182131 31 95 1.6 3.2 0.00 0.00 0.00 67 1015.6
20260507181628 30 353 1.6 3.2 0.00 0.00 0.00 67 1015.9
20260507181124 30 25 1.6 1.6 0.00 0.00 0.00 64 1015.8
20260507180620 31 26 1.6 4.8 0.00 0.00 0.00 60 1015.8
20260507180118 30 165 3.2 4.8 0.00 0.00 0.00 63 1015.9
20260507175613 30 147 3.2 4.8 0.00 0.00 0.00 61 1016.0
20260507175111 30 42 1.6 1.6 0.00 0.00 0.00 65 1015.9
20260507174608 31 46 3.2 3.2 0.00 0.00 0.00 65 1016.1
20260507174106 31 258 4.8 6.4 0.00 0.00 0.00 65 1016.0
20260507173603 30 138 0.0 1.6 0.00 0.00 0.00 68 1016.2
20260507173100 31 215 3.2 4.8 0.00 0.00 0.00 66 1016.2
20260507172555 30 159 4.8 6.4 0.00 0.00 0.00 68 1016.3
20260507172053 30 54 0.0 0.0 0.00 0.00 0.00 68 1016.4
20260507171548 30 118 0.0 1.6 0.00 0.00 0.00 72 1016.7
20260507171046 30 97 4.8 6.4 0.00 0.00 0.00 67 1016.8
20260507170542 31 87 3.2 3.2 0.00 0.00 0.00 65 1016.8
20260507170039 31 104 3.2 4.8 0.00 0.00 0.00 64 1017.0
20260507165535 31 132 6.4 11.3 0.00 0.00 0.00 62 1016.9
20260507165032 32 180 4.8 4.8 0.00 0.00 0.00 62 1016.9
20260507164528 31 1 3.2 3.2 0.00 0.00 0.00 63 1017.0
20260507164025 31 21 3.2 3.2 0.00 0.00 0.00 61 1017.1
20260507163522 31 58 3.2 3.2 0.00 0.00 0.00 61 1017.3
20260507163021 30 261 3.2 3.2 0.00 0.00 0.00 67 1017.3
20260507162520 31 115 6.4 6.4 0.00 0.00 0.00 62 1017.3
20260507162018 31 28 0.0 1.6 0.00 0.00 0.00 65 1017.4
20260507161514 30 318 1.6 3.2 0.00 0.00 0.00 70 1017.5
20260507161011 30 80 0.0 1.6 0.00 0.00 0.00 70 1017.7
20260507160507 30 32 3.2 3.2 0.00 0.00 0.00 67 1017.6
20260507160003 30 101 3.2 4.8 0.00 0.00 0.00 65 1017.7
20260507155459 30 158 3.2 3.2 0.00 0.00 0.00 71 1017.7
20260507154956 30 130 3.2 4.8 0.00 0.00 0.00 69 1017.7
20260507154453 30 118 0.0 1.6 0.00 0.00 0.00 69 1017.8
20260507153950 30 122 0.0 1.6 0.00 0.00 0.00 67 1017.8
20260507153447 30 126 1.6 3.2 0.00 0.00 0.00 65 1017.8
20260507152943 30 61 0.0 1.6 0.00 0.00 0.00 68 1017.9
20260507152439 30 211 3.2 6.4 0.00 0.00 0.00 69 1017.7
20260507151935 30 130 4.8 6.4 0.00 0.00 0.00 67 1018.1
20260507151432 29 150 3.2 4.8 0.00 0.00 0.00 68 1017.8
20260507150929 29 87 1.6 3.2 0.00 0.00 0.00 69 1017.8
20260507150426 30 163 1.6 3.2 0.00 0.00 0.00 70 1018.0
20260507145922 29 39 3.2 3.2 0.00 0.00 0.00 71 1018.1
20260507145417 29 167 4.8 4.8 0.00 0.00 0.00 71 1018.2
20260507144915 29 98 3.2 4.8 0.00 0.00 0.00 70 1018.0
20260507144412 29 147 1.6 3.2 0.00 0.00 0.00 71 1018.3
20260507143908 29 128 1.6 1.6 0.00 0.00 0.00 72 1018.2
20260507143406 28 101 1.6 1.6 0.00 0.00 0.00 72 1018.3
20260507142902 29 199 0.0 1.6 0.00 0.00 0.00 70 1018.2
20260507142358 29 19 3.2 3.2 0.00 0.00 0.00 70 1018.3
20260507141856 29 91 3.2 3.2 0.00 0.00 0.00 70 1018.4
20260507141352 28 86 0.0 0.0 0.00 0.00 0.00 76 1018.3
20260507140848 28 66 1.6 1.6 0.00 0.00 0.00 73 1018.4
20260507140345 28 121 0.0 1.6 0.00 0.00 0.00 74 1018.7
20260507135843 28 103 1.6 3.2 0.00 0.00 0.00 74 1018.6
20260507135340 28 53 1.6 1.6 0.00 0.00 0.00 74 1018.4
20260507134837 28 179 4.8 6.4 0.00 0.00 0.00 73 1018.6
20260507134333 28 90 8.0 11.3 0.00 0.00 0.00 72 1018.5
20260507133829 28 172 3.2 4.8 0.00 0.00 0.00 75 1018.6
20260507133325 26 138 4.8 6.4 0.00 0.00 0.00 79 1018.4
20260507132824 26 103 4.8 6.4 0.00 0.00 0.00 80 1018.5
20260507132319 27 96 3.2 4.8 0.00 0.00 0.00 78 1018.1
20260507131817 27 85 1.6 1.6 0.00 0.00 0.00 78 1018.2
20260507131313 27 68 3.2 3.2 0.00 0.00 0.00 77 1018.3
20260507130810 27 131 4.8 6.4 0.00 0.00 0.00 77 1018.4
20260507130308 26 89 1.6 1.6 0.00 0.00 0.00 80 1018.1
20260507125807 26 86 4.8 4.8 0.00 0.00 0.00 80 1018.1
20260507125306 27 124 3.2 4.8 0.00 0.00 0.00 79 1018.1
20260507124801 26 93 4.8 4.8 0.00 0.00 0.00 79 1018.1
20260507124257 26 122 3.2 3.2 0.00 0.00 0.00 80 1018.1
20260507123755 26 87 4.8 6.4 0.00 0.00 0.00 79 1017.9
20260507123253 26 171 6.4 9.7 0.00 0.00 0.00 81 1017.9
20260507122748 26 138 6.4 9.7 0.00 0.00 0.00 82 1018.0
20260507122244 26 93 6.4 6.4 0.00 0.00 0.00 82 1017.9
20260507121740 26 101 4.8 6.4 0.00 0.00 0.00 83 1018.0
20260507121236 26 111 6.4 6.4 0.00 0.00 0.00 82 1017.8
20260507120732 25 128 8.0 9.7 0.00 0.00 0.00 83 1017.7
20260507120229 25 110 1.6 3.2 0.00 0.00 0.00 84 1017.5
20260507115725 25 122 11.3 12.9 0.00 0.00 0.00 83 1017.5
20260507115221 25 80 6.4 9.7 0.00 0.00 0.00 83 1017.5
20260507114717 25 128 3.2 4.8 0.00 0.00 0.00 85 1017.5
20260507114215 25 130 6.4 11.3 0.00 0.00 0.00 85 1017.5
20260507113712 25 89 3.2 4.8 0.00 0.00 0.00 85 1017.4
20260507113209 25 102 8.0 9.7 0.00 0.00 0.00 85 1017.3
20260507112706 25 105 6.4 9.7 0.00 0.00 0.00 86 1017.2
20260507112203 25 100 6.4 9.7 0.00 0.00 0.00 85 1017.4
20260507111700 24 136 3.2 3.2 0.00 0.00 0.00 87 1017.4
20260507111157 23 141 4.8 4.8 0.00 0.00 0.00 88 1017.2
20260507110653 23 85 3.2 4.8 0.00 0.00 0.00 89 1017.3
20260507110150 23 111 3.2 4.8 0.00 0.00 0.00 89 1017.2
20260507105647 23 97 1.6 1.6 0.00 0.00 0.00 90 1017.5
20260507105142 23 92 3.2 3.2 0.00 0.00 0.00 90 1017.4
20260507104640 23 94 1.6 1.6 0.00 0.00 0.00 90 1017.4
20260507104136 23 115 4.8 6.4 0.00 0.00 0.00 90 1017.2
20260507103632 23 84 1.6 1.6 0.00 0.00 0.00 90 1017.3
20260507103130 23 87 1.6 3.2 0.00 0.00 0.00 91 1017.2
20260507102626 22 80 3.2 3.2 0.00 0.00 0.00 91 1017.1
20260507102122 22 90 0.0 0.0 0.00 0.00 0.00 91 1017.0
20260507101618 22 82 1.6 1.6 0.00 0.00 0.00 91 1017.0
20260507101114 22 88 0.0 1.6 0.00 0.00 0.00 91 1016.9
20260507100612 22 54 0.0 0.0 0.00 0.00 0.00 91 1016.5
20260507100110 22 56 1.6 1.6 0.00 0.00 0.00 91 1016.7
20260507095607 22 60 1.6 1.6 0.00 0.00 0.00 91 1016.4
20260507095104 22 73 1.6 1.6 0.00 0.00 0.00 91 1016.8
20260507094600 22 93 0.0 1.6 0.00 0.00 0.00 92 1016.8
20260507094057 22 83 1.6 1.6 0.00 0.00 0.00 92 1016.4
20260507093554 22 80 0.0 0.0 0.00 0.00 0.00 91 1016.8
20260507093053 22 92 1.6 1.6 0.00 0.00 0.00 91 1016.8
20260507092549 22 87 0.0 0.0 0.00 0.00 0.00 91 1016.7
20260507092046 22 158 3.2 3.2 0.00 0.00 0.00 91 1016.5
20260507091543 22 90 3.2 4.8 0.00 0.00 0.00 91 1016.9
20260507091039 23 85 0.0 0.0 0.00 0.00 0.00 91 1016.5
20260507090534 23 122 1.6 1.6 0.00 0.00 0.00 90 1017.0
20260507090032 23 79 3.2 3.2 0.00 0.00 0.00 91 1016.8
20260507085529 23 104 1.6 3.2 0.00 0.00 0.00 91 1017.0
20260507085025 23 85 3.2 3.2 0.00 0.00 0.00 91 1017.1
20260507084522 23 86 6.4 6.4 0.00 0.00 0.00 91 1017.0
20260507084019 23 98 1.6 1.6 0.00 0.00 0.00 91 1017.0
20260507083515 23 100 0.0 0.0 0.00 0.00 0.00 90 1016.8
20260507083013 23 85 3.2 3.2 0.00 0.00 0.00 90 1016.9
20260507082509 23 82 1.6 3.2 0.00 0.00 0.00 90 1016.9
20260507082005 23 104 4.8 6.4 0.00 0.00 0.00 91 1016.9
20260507081501 23 90 1.6 1.6 0.00 0.00 0.00 91 1016.9
20260507080958 23 50 1.6 1.6 0.00 0.00 0.00 90 1016.8
20260507080454 23 82 3.2 4.8 0.00 0.00 0.00 91 1016.8
20260507075949 23 86 6.4 6.4 0.00 0.00 0.00 91 1016.7
20260507075446 23 105 4.8 4.8 0.00 0.00 0.00 91 1016.7
20260507074943 23 97 1.6 1.6 0.00 0.00 0.00 91 1016.9
20260507074440 23 101 4.8 6.4 0.00 0.00 0.00 91 1016.8
20260507073938 23 114 3.2 3.2 0.00 0.00 0.00 91 1016.9
20260507073434 23 86 4.8 4.8 0.00 0.00 0.00 91 1016.8
20260507072930 23 87 6.4 6.4 0.00 0.00 0.00 90 1016.9
20260507072428 23 114 1.6 1.6 0.00 0.00 0.00 90 1017.0
20260507071925 23 119 3.2 3.2 0.00 0.00 0.00 90 1016.9
20260507071422 23 108 3.2 3.2 0.00 0.00 0.00 90 1016.9
20260507070918 23 106 3.2 3.2 0.00 0.00 0.00 90 1017.0
20260507070416 23 113 1.6 3.2 0.00 0.00 0.00 89 1017.1
20260507065913 23 92 4.8 6.4 0.00 0.00 0.00 89 1017.1
20260507065410 23 86 0.0 1.6 0.00 0.00 0.00 89 1017.1
20260507064907 23 103 3.2 4.8 0.00 0.00 0.00 89 1017.3
20260507064405 23 112 3.2 3.2 0.00 0.00 0.00 89 1017.3
20260507063902 23 112 0.0 0.0 0.00 0.00 0.00 90 1017.5
20260507063359 23 106 0.0 0.0 0.00 0.00 0.00 90 1017.4
20260507062856 23 87 0.0 0.0 0.00 0.00 0.00 90 1017.3
20260507062353 23 93 0.0 0.0 0.00 0.00 0.00 90 1017.5
20260507061851 23 116 0.0 0.0 0.00 0.00 0.00 90 1017.4
20260507061348 23 113 0.0 0.0 0.00 0.00 0.00 90 1017.5
20260507060847 23 87 0.0 0.0 0.00 0.00 0.00 90 1017.4
20260507060343 23 87 0.0 0.0 0.00 0.00 0.00 89 1017.6
20260507055840 23 103 0.0 0.0 0.00 0.00 0.00 89 1017.6
20260507055335 23 90 0.0 0.0 0.00 0.00 0.00 90 1017.7
20260507054832 23 74 0.0 0.0 0.00 0.00 0.00 90 1017.7
20260507054328 23 80 0.0 0.0 0.00 0.00 0.00 90 1017.9
20260507053826 23 96 0.0 0.0 0.00 0.00 0.00 90 1017.9
20260507053323 23 129 0.0 0.0 0.00 0.00 0.00 90 1018.0
20260507052822 23 77 0.0 0.0 0.00 0.00 0.00 89 1018.0
20260507052318 23 79 0.0 0.0 0.00 0.00 0.00 89 1018.1
20260507051816 23 71 0.0 0.0 0.00 0.00 0.00 88 1018.2
20260507051313 23 78 0.0 0.0 0.00 0.00 0.00 88 1018.1
20260507050810 23 72 0.0 0.0 0.00 0.00 0.00 88 1018.3
20260507050306 23 93 4.8 4.8 0.00 0.00 0.00 88 1018.1
20260507045803 23 95 3.2 4.8 0.00 0.00 0.00 88 1018.5
20260507045300 23 85 0.0 0.0 0.00 0.00 0.00 88 1018.5
20260507044757 23 101 1.6 1.6 0.00 0.00 0.00 89 1018.7
20260507044253 23 126 6.4 6.4 0.00 0.00 0.00 89 1018.5
20260507043749 23 94 3.2 4.8 0.00 0.00 0.00 88 1018.8
20260507043246 23 88 1.6 1.6 0.00 0.00 0.00 88 1018.9
20260507042742 23 94 1.6 3.2 0.00 0.00 0.00 88 1018.9
20260507042238 23 97 4.8 6.4 0.00 0.00 0.00 87 1019.1
20260507041736 23 113 4.8 4.8 0.00 0.00 0.00 87 1019.1
20260507041232 23 115 3.2 4.8 0.00 0.00 0.00 87 1019.1
20260507040729 23 68 0.0 0.0 0.00 0.00 0.00 86 1019.1
20260507040225 23 93 3.2 3.2 0.00 0.00 0.00 86 1019.0
20260507035721 23 94 3.2 3.2 0.00 0.00 0.00 86 1019.1
20260507035217 23 94 3.2 3.2 0.00 0.00 0.00 86 1019.0
20260507034714 23 93 1.6 1.6 0.00 0.00 0.00 85 1019.1
20260507034211 23 88 1.6 1.6 0.00 0.00 0.00 85 1019.1
20260507033710 23 106 1.6 3.2 0.00 0.00 0.00 85 1019.2
20260507033207 23 54 1.6 1.6 0.00 0.00 0.00 84 1019.3
20260507032704 23 111 3.2 3.2 0.00 0.00 0.00 84 1019.3
20260507032159 23 84 3.2 3.2 0.00 0.00 0.00 84 1018.9
20260507031657 23 52 1.6 3.2 0.00 0.00 0.00 83 1019.1
20260507031153 23 86 0.0 1.6 0.00 0.00 0.00 83 1019.1
20260507030650 24 88 3.2 4.8 0.00 0.00 0.00 83 1019.3
20260507030148 24 96 3.2 3.2 0.00 0.00 0.00 82 1019.2
20260507025645 24 97 3.2 3.2 0.00 0.00 0.00 82 1019.3
20260507025142 23 94 1.6 3.2 0.00 0.00 0.00 82 1019.4
20260507024640 23 96 3.2 3.2 0.00 0.00 0.00 82 1019.4
20260507024137 23 101 1.6 3.2 0.00 0.00 0.00 82 1019.2
20260507023632 23 98 0.0 0.0 0.00 0.00 0.00 81 1019.4
20260507023130 23 66 0.0 1.6 0.00 0.00 0.00 81 1019.2
20260507022627 24 86 0.0 0.0 0.00 0.00 0.00 81 1019.2
20260507022122 24 91 1.6 1.6 0.00 0.00 0.00 80 1019.1
20260507021619 24 89 3.2 4.8 0.00 0.00 0.00 79 1018.9
20260507021115 24 95 3.2 4.8 0.00 0.00 0.00 79 1019.1
20260507020613 24 95 6.4 6.4 0.00 0.00 0.00 79 1019.0
20260507020109 24 117 3.2 4.8 0.00 0.00 0.00 80 1018.8
20260507015607 24 135 3.2 3.2 0.00 0.00 0.00 80 1018.8
20260507015104 24 154 6.4 9.7 0.00 0.00 0.00 80 1018.9
20260507014601 24 143 3.2 4.8 0.00 0.00 0.00 80 1018.9
20260507014056 24 123 6.4 6.4 0.00 0.00 0.00 80 1018.9
20260507013553 24 125 3.2 3.2 0.00 0.00 0.00 80 1018.8
20260507013051 24 159 4.8 4.8 0.00 0.00 0.00 80 1018.8
20260507012548 24 110 3.2 3.2 0.00 0.00 0.00 79 1018.7
20260507012044 25 139 1.6 1.6 0.00 0.00 0.00 79 1018.7
20260507011542 25 105 1.6 1.6 0.00 0.00 0.00 79 1018.6
20260507011038 25 135 3.2 3.2 0.00 0.00 0.00 79 1018.7
20260507010532 25 92 3.2 3.2 0.00 0.00 0.00 79 1018.6
20260507010029 25 139 3.2 6.4 0.00 0.00 0.00 79 1018.5
20260507005526 25 87 6.4 6.4 0.00 0.00 0.00 79 1018.5
20260507005023 25 103 4.8 4.8 0.00 0.00 0.00 79 1018.3
20260507004520 25 95 3.2 6.4 0.00 0.00 0.00 78 1018.6
20260507004017 25 129 4.8 4.8 0.00 0.00 0.00 78 1018.4
20260507003512 25 94 3.2 3.2 0.00 0.00 0.00 78 1018.2
20260507003008 25 143 4.8 4.8 0.00 0.00 0.00 77 1018.2
20260507002504 25 96 3.2 3.2 0.00 0.00 0.00 77 1018.2
20260507002001 25 134 6.4 6.4 0.00 0.00 0.00 77 1018.4
20260507001457 25 136 3.2 4.8 0.00 0.00 0.00 77 1018.0
20260507000955 25 81 0.0 0.0 0.00 0.00 0.00 77 1017.9
20260507000450 25 78 3.2 4.8 0.00 0.00 0.00 77 1017.9
20260506235946 25 76 0.0 1.6 0.00 0.00 0.00 77 1017.7
20260506235444 25 90 4.8 4.8 0.00 0.00 0.00 77 1017.7
20260506234939 25 119 4.8 4.8 0.00 0.00 0.00 77 1017.7
20260506234437 25 89 0.0 1.6 0.00 0.00 0.00 77 1017.4
20260506233934 25 76 4.8 4.8 0.00 0.00 0.00 77 1017.5
20260506233431 25 88 3.2 4.8 0.00 0.00 0.00 77 1017.5
20260506232927 25 81 1.6 1.6 0.00 0.00 0.00 77 1017.4
20260506232424 25 83 0.0 0.0 0.00 0.00 0.00 76 1017.5
20260506231919 25 79 0.0 0.0 0.00 0.00 0.00 76 1017.5
20260506231417 25 81 1.6 3.2 0.00 0.00 0.00 75 1017.4
20260506230914 26 57 1.6 1.6 0.00 0.00 0.00 75 1017.2
20260506230411 26 103 3.2 4.8 0.00 0.00 0.00 74 1017.2
20260506225907 26 59 6.4 6.4 0.00 0.00 0.00 74 1017.2
20260506225405 26 73 6.4 9.7 0.00 0.00 0.00 74 1017.0
20260506224901 26 107 3.2 4.8 0.00 0.00 0.00 73 1016.9
20260506224359 26 108 8.0 11.3 0.00 0.00 0.00 73 1016.9
20260506223855 27 98 6.4 9.7 0.00 0.00 0.00 72 1016.9
20260506223350 27 98 4.8 11.3 0.00 0.00 0.00 71 1016.7
20260506222848 27 87 4.8 4.8 0.00 0.00 0.00 67 1016.5
20260506222343 27 111 3.2 3.2 0.00 0.00 0.00 66 1016.5